[[{"header":{"parameterUnit":"m.s-1","parameterCategory":1,"la1":30.2992,"la2":30.254,"lo1":-89.0895,"lo2":-89.0443,"dy":0.0025,"dx":0.0025,"nx":19,"ny":19,"refTime":"2026-03-13T03:00:00:Z","depth":0,"parameterNumber":2,"parameterNumberName":"U-component_of_WINDS"},"data":[0,0,0,-1.1775,-1.1777,-1.1872,-1.1872,-1.1999,-1.2,0,0,0,0,0,0,0,0,0,0,0,-1.175,-1.1751,-1.1775,-1.1777,-1.1872,-1.1872,-1.1999,-1.2,0,0,0,0,0,0,0,0,0,0,0,-1.175,-1.1751,-1.1752,-1.1777,-1.1872,-1.1872,-1.1999,-1.1925,0,0,0,0,0,0,0,0,0,0,-1.1832,-1.1813,-1.1751,-1.1752,-1.1778,-1.1871,-1.1872,-1.1921,-1.193,-1.1959,0,-1.1985,0,-1.1995,-1.2009,-1.201,0,0,0,-1.1775,-1.1806,-1.1828,-1.1752,-1.1779,-1.1871,-1.1828,-1.1926,-1.1935,-1.197,-1.1987,-1.1992,-1.1997,-1.201,-1.2011,-1.2185,-1.2186,0,0,-1.1769,-1.177,-1.1822,-1.1835,-1.182,-1.1825,-1.1831,-1.1932,-1.1951,-1.1988,-1.1995,-1.1999,-1.2011,-1.2012,-1.2184,-1.2185,0,0,0,-1.1756,-1.1766,-1.1785,-1.183,-1.1846,-1.1828,-1.1835,-1.1946,-1.1953,-1.1996,-1.2001,-1.2012,-1.2013,-1.2183,-1.2185,-1.2231,0,0,0,-1.1753,-1.1758,-1.1783,-1.1784,-1.1844,-1.1897,-1.1848,-1.1946,-1.1957,-1.2,-1.2012,-1.2015,-1.2182,-1.2184,-1.2228,-1.2254,0,0,0,-1.1743,-1.1757,-1.1772,-1.1784,-1.1825,-1.1896,-1.1908,-1.1948,-1.196,-1.201,-1.2015,-1.2182,-1.2184,-1.2225,-1.2249,-1.23,0,0,0,-1.1733,-1.1813,-1.1773,-1.1863,-1.1824,-1.1923,-1.1907,-1.1981,-1.2029,-1.2012,-1.2182,-1.2185,-1.2224,-1.2246,-1.2297,-1.2344,-1.2363,0,0,-1.1834,-1.1825,-1.1878,-1.1845,-1.1951,-1.1909,-1.2022,-1.2066,-1.2071,-1.2147,-1.2151,-1.2229,-1.2248,-1.2299,-1.247,-1.2485,0,0,0,-1.191,-1.1948,-1.1976,-1.2022,-1.2056,-1.2088,-1.2115,-1.2131,-1.2195,-1.211,-1.2261,-1.2272,-1.2302,-1.2325,-1.2338,-1.2363,-1.2195,-1.2194,-1.2194,-1.2055,-1.2055,-1.2143,-1.2155,-1.2198,-1.2224,-1.226,-1.2286,-1.2274,-1.231,-1.2333,-1.2436,-1.2463,-1.2472,-1.2499,-1.2357,-1.2357,-1.2357,-1.2357,-1.2203,-1.2258,-1.2238,-1.2317,-1.2317,-1.2383,-1.241,-1.2399,-1.246,-1.2419,-1.2445,-1.2402,-1.2489,-1.2513,-1.2361,-1.236,-1.236,-1.2359,-1.2359,-1.2299,-1.2326,-1.2342,-1.2407,-1.2456,-1.2464,-1.2524,-1.2521,-1.252,-1.2545,-1.257,-1.2569,-1.2568,-1.2557,-1.2557,-1.2557,-1.2558,-1.2558,-1.2558,-1.2393,-1.241,-1.2461,-1.2502,-1.253,-1.2567,-1.2591,-1.2619,-1.2648,-1.2642,-1.2642,-1.2627,-1.2497,-1.2465,-1.2564,-1.2563,-1.2562,-1.2562,-1.2561,-1.2546,-1.251,-1.2588,-1.2616,-1.2664,-1.2713,-1.2708,-1.2763,-1.2785,-1.2815,-1.2793,-1.2697,-1.2688,-1.2678,-1.2651,-1.2792,-1.2792,-1.2792,-1.2792,-1.2628,-1.2622,-1.27,-1.2745,-1.2788,-1.279,-1.2878,-1.2896,-1.2911,-1.2924,-1.2903,-1.2867,-1.2856,-1.2854,-1.284,-1.2815,-1.2995,-1.2995,-1.2995,-1.2722,-1.272,-1.2796,-1.2808,-1.2845,-1.2876,-1.2958,-1.301,-1.3018,-1.3003,-1.2935,-1.2926,-1.2868,-1.2849,-1.2835,-1.2813,-1.2768,0,0]},{"header":{"parameterUnit":"m.s-1","parameterCategory":1,"la1":30.2992,"la2":30.254,"lo1":-89.0895,"lo2":-89.0443,"dy":0.0025,"dx":0.0025,"nx":19,"ny":19,"refTime":"2026-03-13T03:00:00:Z","depth":0,"parameterNumber":3,"parameterNumberName":"V-component_of_WINDS"},"data":[0,0,0,-6.0838,-6.0843,-6.107,-6.1071,-6.1377,-6.1379,0,0,0,0,0,0,0,0,0,0,0,-6.0782,-6.0784,-6.0837,-6.0843,-6.107,-6.1071,-6.1376,-6.1379,0,0,0,0,0,0,0,0,0,0,0,-6.0781,-6.0784,-6.0787,-6.0844,-6.107,-6.1071,-6.1375,-6.1198,0,0,0,0,0,0,0,0,0,0,-6.0975,-6.0935,-6.0783,-6.0787,-6.0846,-6.107,-6.1071,-6.1189,-6.1209,-6.1281,0,-6.135,0,-6.137,-6.1401,-6.1402,0,0,0,-6.0834,-6.0919,-6.097,-6.0787,-6.0848,-6.107,-6.0965,-6.12,-6.1223,-6.1307,-6.1354,-6.1365,-6.1375,-6.1403,-6.1405,-6.1854,-6.1856,0,0,-6.0822,-6.0829,-6.0954,-6.0985,-6.0953,-6.0958,-6.0973,-6.1214,-6.1264,-6.1355,-6.1372,-6.138,-6.1405,-6.1408,-6.1851,-6.1854,0,0,0,-6.0792,-6.082,-6.0865,-6.0973,-6.1013,-6.0965,-6.0982,-6.1253,-6.1267,-6.1375,-6.1383,-6.1407,-6.1411,-6.1849,-6.1853,-6.1986,0,0,0,-6.0784,-6.0803,-6.086,-6.0866,-6.1009,-6.1136,-6.1016,-6.1251,-6.1278,-6.1382,-6.1407,-6.1414,-6.1846,-6.1851,-6.1976,-6.2048,0,0,0,-6.0763,-6.08,-6.0837,-6.0866,-6.0965,-6.1132,-6.116,-6.1256,-6.1284,-6.1402,-6.1415,-6.1844,-6.185,-6.1968,-6.2033,-6.2169,0,0,0,-6.0742,-6.0951,-6.0839,-6.1075,-6.0963,-6.1213,-6.1158,-6.1344,-6.1462,-6.1409,-6.1846,-6.1852,-6.1965,-6.2025,-6.2159,-6.2284,-6.2337,0,0,-6.1009,-6.0984,-6.1122,-6.1028,-6.1301,-6.1178,-6.147,-6.157,-6.1573,-6.1759,-6.177,-6.1979,-6.2032,-6.2167,-6.2627,-6.2669,0,0,0,-6.1209,-6.1308,-6.1379,-6.1493,-6.1575,-6.1652,-6.1707,-6.1744,-6.1902,-6.1671,-6.2064,-6.2095,-6.2173,-6.2233,-6.2269,-6.2335,-6.188,-6.1879,-6.1878,-6.1597,-6.1592,-6.182,-6.1843,-6.1953,-6.2008,-6.2097,-6.2155,-6.2116,-6.2209,-6.2265,-6.2545,-6.2615,-6.2642,-6.2712,-6.2329,-6.233,-6.233,-6.2331,-6.1988,-6.2129,-6.2073,-6.2275,-6.2267,-6.2436,-6.2496,-6.2462,-6.2617,-6.2503,-6.2571,-6.2448,-6.2688,-6.2749,-6.2341,-6.2339,-6.2338,-6.2337,-6.2336,-6.2243,-6.2309,-6.2351,-6.2515,-6.2641,-6.2655,-6.2807,-6.2793,-6.2782,-6.285,-6.2907,-6.2905,-6.2901,-6.2878,-6.2879,-6.288,-6.2881,-6.2881,-6.2882,-6.2491,-6.2534,-6.2665,-6.277,-6.2841,-6.2933,-6.2989,-6.3057,-6.313,-6.3108,-6.3109,-6.3061,-6.2712,-6.2626,-6.2897,-6.2894,-6.2892,-6.2891,-6.289,-6.2891,-6.2798,-6.3001,-6.3072,-6.3194,-6.332,-6.3301,-6.3442,-6.3496,-6.3571,-6.3508,-6.3253,-6.3225,-6.3196,-6.3125,-6.3509,-6.3509,-6.3509,-6.3509,-6.3107,-6.3091,-6.3295,-6.341,-6.352,-6.3524,-6.375,-6.3795,-6.3827,-6.386,-6.3802,-6.3705,-6.3676,-6.3665,-6.3627,-6.356,-6.4046,-6.4046,-6.4047,-6.3353,-6.3348,-6.3545,-6.3576,-6.367,-6.3751,-6.3963,-6.4095,-6.4111,-6.4068,-6.3885,-6.3863,-6.3706,-6.3655,-6.361,-6.355,-6.3427,0,0]}]]